Weather History for Marathon, FL

Change the Weather History Date:

Monday, April 16, 2012

  Actual Average Record
Temperature  
Mean Temperature 81 °F 77 °F  
Max Temperature 85 °F 83 °F 90 °F (2013)
Min Temperature 76 °F 72 °F 61 °F (2008)
Degree Days  
Heating Degree Days 0 0  
Month to date heating degree days 0 0  
Since 1 July heating degree days 33 81  
Cooling Degree Days 16 12  
Month to date cooling degree days 222 186  
Year to date cooling degree days 1140 851  
Growing Degree Days 30 (Base 50)    
Moisture  
Dew Point 61 °F    
Average Humidity 54    
Maximum Humidity 64    
Minimum Humidity 43    
Precipitation  
Precipitation 0.00 in 0.09 in 0.07 in (2002)
Month to date precipitation 1.95 1.14  
Year to date precipitation 6.02 7.35  
Snow  
Snow 0.00 in - - ()
Month to date snowfall 0.0  
Since 1 July snowfall 0.0  
Snow Depth 0.00 in    
Sea Level Pressure  
Sea Level Pressure 30.12 in    
Wind  
Wind Speed 13 mph (East)    
Max Wind Speed 18 mph    
Max Gust Speed 29 mph    
Visibility 10 miles    
Events      
T = Trace of Precipitation, MM = Missing Value Source: NWS Daily Summary

Daily Weather History Graph

Daily Weather History Graph

Search for Another Location

Airport:

Trip Planner

Search our weather history database for the weather conditions in past years. The results will help you decide how hot, cold, wet, or windy it might be!

Date:

Astronomy

Apr. 16, 2012 Rise Set
Actual Time 7:00 AM EDT 7:47 PM EDT
Civil Twilight 6:37 AM EDT 8:10 PM EDT
Nautical Twilight 6:10 AM EDT 8:38 PM EDT
Astronomical Twilight 5:42 AM EDT 9:06 PM EDT
Moon 4:02 AM EDT (4/16) 4:03 PM EDT (4/16)
Length of Visible Light 13h 33m
Length of Day
12h 46m
Waning Crescent, 19% of the Moon is Illuminated
Apr 16
Waning Crescent
Apr 21
New
Apr 29
First Quarter
May 5
Full
May 12
Last Quarter

Hourly Weather History & Observations

Time (EDT) Temp. Heat Index Dew Point Humidity Pressure Visibility Wind Dir Wind Speed Gust Speed Precip Events Conditions
12:53 AM 77.0 °F - 62.1 °F 60% 30.14 in 10.0 mi ESE 16.1 mph 24.2 mph N/A   Mostly Cloudy
1:53 AM 77.0 °F - 61.0 °F 58% 30.12 in 10.0 mi East 15.0 mph 23.0 mph N/A   Mostly Cloudy
2:53 AM 77.0 °F - 60.1 °F 56% 30.10 in 10.0 mi East 12.7 mph 21.9 mph N/A   Overcast
3:53 AM 77.0 °F - 62.1 °F 60% 30.08 in 10.0 mi East 13.8 mph 21.9 mph N/A   Mostly Cloudy
4:53 AM 75.9 °F - 62.1 °F 62% 30.08 in 10.0 mi East 13.8 mph 21.9 mph N/A   Scattered Clouds
5:53 AM 77.0 °F - 61.0 °F 58% 30.08 in 10.0 mi ESE 15.0 mph 24.2 mph N/A   Overcast
6:53 AM 75.9 °F - 59.0 °F 56% 30.10 in 10.0 mi East 12.7 mph 21.9 mph N/A   Overcast
7:53 AM 77.0 °F - 55.9 °F 48% 30.11 in 10.0 mi ESE 9.2 mph 20.7 mph N/A   Partly Cloudy
8:53 AM 79.0 °F - 61.0 °F 54% 30.13 in 10.0 mi ESE 11.5 mph 19.6 mph N/A   Clear
9:53 AM 81.0 °F 81.7 °F 61.0 °F 50% 30.14 in 10.0 mi ESE 11.5 mph 26.5 mph N/A   Scattered Clouds
10:53 AM 82.0 °F 82.0 °F 57.9 °F 44% 30.15 in 10.0 mi ESE 13.8 mph 24.2 mph N/A   Clear
11:53 AM 84.0 °F 84.4 °F 61.0 °F 46% 30.17 in 10.0 mi ESE 12.7 mph 18.4 mph N/A   Partly Cloudy
12:53 PM 84.0 °F 84.4 °F 61.0 °F 46% 30.16 in 10.0 mi ESE 10.4 mph 18.4 mph N/A   Mostly Cloudy
1:53 PM 82.9 °F 83.7 °F 62.1 °F 49% 30.14 in 10.0 mi East 11.5 mph 18.4 mph N/A   Overcast
2:53 PM 84.0 °F 84.4 °F 61.0 °F 46% 30.12 in 10.0 mi East 11.5 mph 18.4 mph N/A   Clear
3:53 PM 82.0 °F 82.7 °F 61.0 °F 49% 30.12 in 10.0 mi East 13.8 mph 23.0 mph N/A   Mostly Cloudy
4:53 PM 82.0 °F 82.7 °F 61.0 °F 49% 30.11 in 10.0 mi East 12.7 mph 23.0 mph N/A   Overcast
5:53 PM 80.1 °F 81.2 °F 62.1 °F 54% 30.11 in 10.0 mi East 13.8 mph 23.0 mph N/A   Overcast
6:53 PM 79.0 °F - 61.0 °F 54% 30.11 in 10.0 mi East 13.8 mph 19.6 mph N/A   Mostly Cloudy
7:53 PM 79.0 °F - 60.1 °F 52% 30.12 in 10.0 mi East 11.5 mph 18.4 mph N/A   Mostly Cloudy
8:53 PM 78.1 °F - 62.1 °F 58% 30.13 in 10.0 mi ENE 15.0 mph 20.7 mph N/A   Scattered Clouds
9:53 PM 77.0 °F - 64.9 °F 66% 30.12 in 10.0 mi East 10.4 mph 20.7 mph N/A   Scattered Clouds
10:53 PM 78.1 °F - 64.0 °F 62% 30.11 in 10.0 mi East 13.8 mph 25.3 mph N/A   Mostly Cloudy
11:53 PM 78.1 °F - 64.0 °F 62% 30.11 in 10.0 mi East 13.8 mph 24.2 mph N/A   Mostly Cloudy